Location: Bishop�s Knoyle
(51.0728°N, 2.1714°W)
Time: 12:47:45
(UTC+00:00)

CREW DRAGON DEMO-1 DEB - Pass Details

Date: 18 September 2020
Orbit: 362 x 364 km, 51.6° (Epoch: 22 October)

Event Time Altitude Azimuth Distance (km) Brightness Sun altitude
Rises 20:11:28 0° 279° (W) 2,200 8.1 -18.4°
Reaches altitude 10° 20:13:30 10° 280° (W) 1,353 6.7 -18.7°
Enters shadow 20:16:25 82° 299° (WNW) 373 2.7 -19.1°
